Location: Cactus School
(34.5700°N, 118.0931°W)
Time: 04:11:34
(UTC-08:00)

Tiros 1 - Pass Details

Date: 29 November 2019
Orbit: 630 x 664 km, 48.4° (Epoch: 06 December)

Event Time Altitude Azimuth Distance (km) Brightness Sun altitude
Rises 12:58:23 0° 303° (WNW) 2,920 10.4 30.9°
Reaches altitude 10° 13:01:45 10° 328° (NNW) 2,009 9.5 30.7°
Maximum altitude 13:04:15 14° 1° (N) 1,741 9.0 30.5°
Drops below altitude 10° 13:06:45 10° 34° (NE) 2,008 9.2 30.3°
Sets 13:10:07 0° 59° (ENE) 2,917 10.1 30.0°
